Vorticity
9 8 8 5 7 8 4 2 -11 -27 -8 8 27 6 5 7 8 7 9 8 9 11 12 10 11 10 25 19 27 29 25 25 17 11 10 9 -2 1 12 12 14 12 12 10
7 49 39 18 8 8 13 14 9 20 17 26 1 8 8 7 8 8 9 10 7 6 8 9 8 8 6 20 4 11 12 25 25 29 30 34 31 26 9 8 11 11 7 12
17 -1 -8 53 72 59 34 17 14 13 -3 9 8 8 9 8 8 10 10 9 8 6 7 8 8 7 6 5 13 10 7 7 5 9 11 14 22 21 38 27 11 13 8 6
0 37 21 15 -1 -7 -4 14 18 13 14 9 7 10 10 8 10 11 9 8 7 7 6 6 7 7 6 6 6 7 4 5 6 4 6 5 8 13 23 22 27 18 17 35
3 -5 -14 56 27 35 6 2 13 13 14 8 6 7 15 12 10 9 8 7 6 6 7 7 7 7 7 7 7 6 7 8 8 7 7 6 8 4 2 1 -1 16 30 21
8 11 2 7 2 4 10 34 14 7 15 14 13 12 2 7 10 9 8 8 6 6 6 6 7 6 6 6 7 7 8 8 8 8 8 7 8 9 10 9 8 5 4 19
2 -5 19 22 14 12 14 9 -2 9 14 16 16 13 10 9 8 9 9 7 7 6 6 6 5 6 6 6 7 7 7 8 8 8 8 9 9 8 7 7 8 9 9 8
23 2 29 9 3 2 -11 -1 7 8 9 11 9 8 7 7 7 7 7 7 7 6 5 5 5 5 6 6 6 6 7 7 7 7 7 7 7 8 8 8 8 8 7 7
-14 -23 -28 6 22 19 15 12 10 11 11 8 8 7 7 7 6 6 6 6 6 6 5 5 5 6 6 6 5 5 5 6 6 6 6 6 6 7 7 7 7 7 7 7
-4 6 -23 -9 1 5 3 8 11 8 12 12 9 8 7 8 7 6 6 7 6 6 6 6 6 6 6 6 6 5 5 5 5 6 6 6 6 6 7 7 7 7 7 8
0 37 27 25 19 20 11 10 6 -3 3 6 8 11 10 9 9 7 7 6 6 7 7 7 6 7 6 6 6 6 6 6 6 6 6 7 7 7 7 7 7 7 6 6
-0 5 -1 -1 6 7 4 5 7 5 7 7 8 8 5 8 11 9 8 8 8 8 6 5 6 8 8 7 6 7 7 7 6 6 6 6 6 7 7 7 7 7 7 7
7 -1 3 5 12 12 12 15 11 13 11 11 10 9 8 10 8 7 10 10 8 7 5 7 8 8 9 8 7 8 8 7 7 6 6 6 7 8 8 8 7 7 7 7
20 15 16 15 19 18 18 23 20 11 9 12 12 14 11 11 12 11 7 11 11 7 7 8 9 8 7 6 7 8 7 7 7 7 8 8 8 8 9 9 9 9 8 8
31 2 -0 1 13 12 7 8 9 11 13 15 20 19 13 17 12 13 14 12 13 12 11 9 8 10 9 9 8 8 9 9 8 7 7 8 9 9 9 10 10 10 10 10
7 7 14 15 12 8 5 9 12 12 12 16 17 18 18 17 16 14 13 12 12 12 12 12 12 10 7 8 9 10 11 10 10 11 10 10 11 11 10 10 10 10 10 11
9 7 15 15 11 10 10 16 15 14 13 10 9 9 8 8 8 8 8 9 11 13 12 11 10 10 11 10 9 8 8 11 11 11 12 11 9 10 10 9 10 11 12 11
22 22 16 14 7 15 20 13 9 6 3 4 3 1 2 5 8 10 11 12 13 13 11 9 10 12 13 13 12 13 13 14 14 14 16 16 16 13 13 11 10 10 10 9
13 27 20 10 20 18 8 7 5 5 6 8 7 5 7 7 7 10 11 11 11 11 10 11 13 16 19 19 18 17 15 15 16 15 14 13 14 15 15 14 12 11 10 10
17 27 24 12 13 4 5 5 5 3 7 8 10 12 12 12 13 12 15 20 21 20 22 16 9 5 5 7 7 6 6 10 10 9 10 12 13 13 14 16 17 14 10 10
26 29 13 10 4 1 2 4 3 5 2 1 7 9 12 15 13 18 23 17 5 6 7 6 6 7 8 8 8 10 14 13 11 10 11 12 7 11 14 11 19 9 8 9
26 18 10 5 3 2 1 2 3 4 3 4 6 14 19 14 10 15 11 9 7 5 9 10 10 9 11 13 14 13 11 12 16 15 13 11 10 17 14 14 15 11 8 8
21 9 2 2 4 4 2 5 6 5 2 5 15 16 16 9 10 15 13 9 7 9 10 11 14 13 12 12 12 12 12 14 12 12 13 14 15 17 15 12 13 10 9 9
9 2 2 5 3 3 1 -2 8 1 3 5 12 19 12 7 12 17 14 7 7 10 10 13 13 13 14 13 12 12 13 13 13 16 19 19 20 17 14 20 16 6 7 17
3 -5 -3 2 6 1 0 4 -2 -11 -7 3 12 12 11 4 12 20 12 7 7 9 15 14 13 12 11 12 15 15 14 14 16 20 21 19 15 15 15 15 10 10 21 22
-4 -2 7 -1 -1 3 9 -7 18 8 -2 5 14 18 11 5 12 20 7 6 9 18 18 13 10 9 10 10 13 16 17 17 16 19 15 14 13 13 14 14 18 21 23 17
-0 1 3 0 5 -2 -2 -3 8 -4 20 25 13 23 13 8 13 13 7 6 15 18 11 10 10 8 8 8 9 13 18 18 16 18 15 13 15 15 17 20 27 21 5 6
Height
3093 3091 3090 3088 3087 3088 3087 3086 3085 3074 3072 3070 3070 3069 3067 3065 3061 3058 3056 3053 3048 3044 3040 3033 3028 3021 3012 3004 2999 2997 2996 2997 2997 2998 2997 2997 2997 2997 2997 2997 2998 2998 2999 3001
3085 3084 3081 3078 3078 3077 3077 3077 3075 3072 3068 3069 3068 3067 3065 3063 3060 3057 3055 3051 3048 3044 3040 3035 3030 3024 3017 3011 3007 3004 3003 3001 2999 2998 2997 2995 2994 2993 2994 2995 2995 2996 2996 2997
3083 3081 3078 3071 3065 3066 3068 3069 3069 3067 3066 3066 3065 3064 3063 3060 3057 3056 3053 3051 3048 3044 3039 3035 3031 3025 3020 3015 3012 3010 3006 3004 3002 2999 2997 2995 2994 2993 2992 2993 2993 2993 2993 2993
3083 3079 3075 3066 3065 3065 3065 3064 3063 3061 3062 3062 3061 3059 3058 3057 3055 3053 3051 3049 3047 3043 3039 3035 3032 3028 3024 3020 3016 3014 3012 3009 3006 3003 3000 2997 2995 2993 2991 2989 2988 2988 2987 2986
3085 3080 3069 3062 3063 3063 3062 3062 3060 3059 3058 3057 3056 3055 3055 3052 3052 3050 3049 3048 3045 3042 3039 3036 3033 3029 3026 3023 3020 3017 3015 3013 3010 3007 3004 3001 2998 2995 2992 2990 2988 2986 2983 2981
3084 3081 3071 3062 3061 3061 3059 3056 3057 3056 3055 3054 3053 3052 3051 3050 3050 3049 3048 3046 3044 3041 3038 3036 3033 3030 3027 3025 3022 3020 3018 3015 3013 3010 3007 3004 3001 2998 2995 2993 2990 2987 2985 2982
3081 3078 3061 3059 3059 3059 3059 3061 3055 3054 3052 3051 3051 3050 3049 3048 3048 3047 3046 3045 3042 3040 3038 3035 3032 3030 3027 3025 3023 3021 3018 3016 3014 3011 3009 3006 3003 3001 2998 2994 2992 2990 2987 2984
3072 3072 3060 3056 3057 3057 3056 3053 3052 3051 3050 3049 3048 3048 3047 3046 3045 3044 3043 3042 3040 3038 3036 3034 3031 3029 3027 3025 3023 3020 3018 3016 3013 3010 3007 3004 3002 2999 2996 2993 2991 2989 2986 2984
3064 3055 3054 3054 3054 3052 3050 3050 3049 3048 3047 3046 3046 3045 3044 3043 3042 3041 3039 3038 3036 3035 3034 3032 3030 3028 3026 3024 3021 3019 3016 3014 3011 3008 3005 3002 3000 2997 2994 2991 2988 2985 2983 2981
3057 3051 3050 3050 3048 3047 3046 3046 3045 3044 3042 3041 3041 3040 3040 3039 3038 3037 3036 3034 3032 3031 3030 3029 3027 3024 3023 3020 3018 3016 3013 3010 3007 3005 3003 3000 2997 2995 2992 2990 2987 2985 2983 2981
3045 3043 3043 3042 3041 3041 3040 3039 3039 3038 3037 3037 3036 3036 3034 3034 3033 3031 3030 3029 3027 3027 3025 3023 3020 3019 3018 3016 3014 3011 3009 3006 3004 3002 3000 2998 2995 2992 2990 2987 2984 2981 2979 2976
3037 3040 3037 3037 3036 3035 3034 3033 3032 3030 3030 3028 3027 3027 3027 3026 3025 3024 3024 3022 3021 3020 3018 3016 3015 3014 3012 3010 3007 3006 3005 3002 3000 2997 2994 2991 2989 2986 2984 2982 2979 2977 2974 2972
3031 3031 3028 3029 3028 3026 3025 3024 3023 3022 3022 3021 3020 3017 3017 3017 3017 3015 3015 3014 3014 3012 3010 3009 3007 3006 3005 3001 2999 2998 2996 2994 2991 2989 2986 2985 2983 2982 2980 2977 2974 2972 2969 2966
3022 3020 3020 3021 3019 3018 3016 3016 3016 3016 3015 3013 3012 3012 3010 3009 3010 3009 3008 3006 3004 3002 3002 3002 3000 2999 2997 2994 2991 2990 2987 2986 2984 2981 2978 2977 2976 2974 2972 2970 2968 2965 2962 2960
3013 3012 3013 3012 3012 3011 3010 3010 3010 3009 3008 3006 3004 3004 3004 3004 3003 3003 3001 3000 2998 2997 2996 2994 2992 2992 2989 2985 2983 2982 2980 2978 2974 2972 2971 2969 2967 2965 2963 2961 2959 2956 2953 2951
3005 3004 3004 3005 3004 3004 3005 3004 3003 3002 3001 3000 2999 2998 2998 2997 2996 2996 2994 2992 2991 2990 2988 2987 2986 2984 2979 2976 2974 2973 2971 2969 2967 2965 2963 2960 2958 2955 2953 2951 2950 2948 2946 2943
2993 2994 2995 2997 2998 2997 2997 2997 2997 2996 2996 2995 2994 2994 2993 2992 2991 2990 2988 2985 2983 2983 2980 2977 2975 2973 2970 2968 2965 2964 2962 2960 2956 2954 2952 2949 2947 2945 2943 2941 2940 2938 2937 2934
2984 2984 2985 2988 2989 2990 2991 2992 2992 2992 2992 2990 2989 2988 2986 2984 2983 2981 2979 2976 2975 2974 2969 2966 2966 2965 2963 2959 2956 2954 2951 2949 2947 2944 2943 2940 2937 2935 2932 2930 2929 2927 2926 2923
2975 2976 2976 2980 2984 2986 2986 2986 2986 2985 2984 2984 2984 2982 2980 2978 2975 2972 2970 2967 2964 2963 2961 2958 2955 2953 2952 2948 2945 2944 2942 2939 2937 2934 2931 2929 2926 2924 2922 2920 2918 2916 2914 2913
2965 2967 2970 2974 2977 2981 2982 2981 2981 2980 2979 2979 2977 2975 2973 2969 2967 2964 2962 2958 2953 2951 2951 2949 2946 2944 2942 2940 2937 2935 2933 2930 2927 2924 2921 2917 2915 2912 2910 2908 2906 2905 2904 2902
2959 2960 2965 2969 2972 2974 2976 2975 2974 2973 2971 2970 2968 2966 2963 2960 2959 2956 2954 2952 2947 2944 2942 2941 2938 2936 2933 2931 2928 2925 2924 2920 2916 2913 2910 2907 2905 2902 2899 2897 2895 2894 2893 2892
2957 2960 2962 2965 2965 2967 2968 2969 2968 2966 2964 2961 2959 2958 2955 2954 2951 2948 2946 2944 2942 2938 2936 2933 2930 2927 2925 2922 2918 2915 2912 2908 2905 2902 2900 2897 2894 2891 2889 2886 2885 2883 2883 2881
2957 2960 2960 2961 2961 2960 2961 2961 2961 2959 2957 2954 2950 2948 2946 2944 2942 2939 2938 2935 2933 2930 2927 2924 2921 2917 2914 2911 2908 2905 2901 2897 2893 2890 2887 2885 2882 2880 2879 2877 2875 2874 2873 2871
2956 2956 2955 2954 2954 2953 2952 2952 2952 2950 2949 2946 2942 2939 2937 2935 2933 2928 2927 2925 2922 2920 2917 2914 2911 2907 2903 2900 2896 2893 2890 2886 2883 2879 2876 2874 2872 2871 2869 2867 2866 2864 2863 2861
2950 2947 2947 2947 2945 2944 2945 2944 2942 2941 2939 2937 2934 2930 2927 2924 2922 2920 2918 2916 2913 2911 2908 2904 2901 2898 2895 2891 2888 2884 2880 2876 2873 2870 2867 2865 2863 2861 2860 2858 2856 2855 2853 2853
2942 2940 2938 2937 2937 2936 2935 2933 2930 2932 2928 2925 2925 2920 2917 2913 2912 2910 2908 2906 2904 2901 2898 2895 2892 2889 2886 2882 2878 2875 2872 2868 2863 2861 2859 2857 2855 2853 2851 2849 2848 2847 2846 2846
2931 2930 2929 2927 2927 2927 2925 2921 2916 2918 2916 2912 2911 2909 2906 2904 2901 2901 2899 2897 2893 2890 2888 2885 2883 2880 2877 2873 2870 2866 2863 2858 2854 2853 2851 2850 2848 2846 2844 2842 2842 2841 2841 2841